Regional Weather Roundup
Issued by NWS

Home | Current Version | Previous Version | Text Only | Print | Product List | Glossary Off
Versions: 1 2 3 4 5 6 7 8 9 10 11 12 13 14 15 16 17 18 19 20 21 22 23 24 25 26 27 28

000
ASUS45 KCYS 271010
RWRWY

WYOMING REGIONAL WEATHER ROUNDUP
NATIONAL WEATHER SERVICE CHEYENNE WY
400 AM MDT SAT MAY 27 2017

NOTE:  "FAIR" INDICATES FEW OR NO CLOUDS BELOW 12,000 FEET
WITH NO SIGNIFICANT WEATHER AND/OR OBSTRUCTIONS TO VISIBILITY.

WYZ001-271100-
YELLOWSTONE NATIONAL PARK

CITY           SKY/WX    TMP DP  RH WIND       PRES   REMARKS
LK YELLOWSTONE   N/A     29  29 100 CALM      30.19R
W YELLOWSTONE  NOT AVBL

$$
WYZ002>013-054>058-071-098>099-271100-
NORTHERN WYOMING

CITY           SKY/WX    TMP DP  RH WIND       PRES   REMARKS
JACKSON        FAIR      34  34 100 NE3       30.17R
CODY           FAIR      43  34  70 W5        30.10R
GREYBULL       FAIR      40  37  89 SE6       30.07R
WORLAND        FAIR      36  36 100 S5        30.07R WCI  32
SHERIDAN       FAIR      39  35  86 W5        30.05R
BUFFALO        FAIR      39  32  76 W8        30.06R WCI  33
GILLETTE       CLOUDY    45  43  93 W12       30.03R
HULETT         PTSUNNY   45  43  93 SW5       30.03S
NEWCASTLE      PTSUNNY   45  43  93 N8        30.02S

$$
WYZ014>020-022>026-101>103-271100-
CENTRAL WYOMING

CITY           SKY/WX    TMP DP  RH WIND       PRES   REMARKS
BIG PINEY      FAIR      29  26  89 N5        30.13R WCI  24
PINEDALE       FAIR      28  28 100 CALM      30.14R
DUBOIS         FAIR      32  32 100 NW10      30.14R WCI  24
LANDER         MOCLDY    41  39  93 W3        30.09S
RIVERTON       CLOUDY    42  40  92 W7        30.11R
CASPER         CLOUDY    42  40  92 N3        30.06S
DOUGLAS        CLOUDY    45  43  93 NW10      30.05S

$$
WYZ021-027>030-104>119-271100-
SOUTHERN WYOMING

CITY           SKY/WX    TMP DP  RH WIND       PRES   REMARKS
EVANSTON       CLOUDY    37  33  85 N8        30.14S WCI  31
KEMMERER         N/A     34  32  93 NW5       30.14R WCI  30
FORT BRIDGER   CLOUDY    39  34  81 W7        30.16S WCI  34
ROCK SPRINGS   FAIR      36  33  89 NE5       30.11R WCI  32
DIXON            N/A     40  37  90 NE3       30.11R
RAWLINS        CLOUDY    41  37  86 NW9       30.09R
SARATOGA       FAIR      37  37 100 SE5       30.08S WCI  34
LARAMIE        MOCLDY    38  36  92 S12       30.06R WCI  30
CHEYENNE       LGT RAIN  43  38  82 W7        30.03F
TORRINGTON     MOCLDY    47  45  93 N5        29.98F
PINE BLUFFS    PTSUNNY   43  43 100 CALM      30.01F

$$




USA.gov is the U.S. government's official web portal to all federal, state and local government web resources and services.